This demonstration page uses our WeatherBlox Daily Observations layout. Learn more.

40.92945, -100.16068

Hourly Observations for April 21, 2018

Temp ( °F °C ) Dew Point ( °F °C ) Humidity (%) Winds ( mph kmh ) Pressure ( in mb ) Visibility ( mi km ) Precip ( " mm )
12:15 am 00:15 Cloudy with Light Drizzle 44 6.7 40 4.4 85 85 ESE 12 19 30.3 1026 10 16.0934 0 0
12:35 am 00:35 Cloudy with Light Rain 43 6.2 39 4.1 87 87 ESE 14 22 30.3 1026 7 11.26538 0.01 0.254
12:55 am 00:55 Cloudy with Light Rain 42 5.6 39 3.7 88 88 ESE 13 20 30.36 1028 7 11.26538 0.03 0.762
1:15 am 01:15 Cloudy with Light Rain 42 5.5 39 3.8 89 89 E 10 17 30.36 1028 7 11.26538 0.02 0.508
1:35 am 01:35 Cloudy with Light Rain 42 5.5 39 3.9 90 90 E 10 17 30.33 1027 10 16.0934 0.04 1.016
1:55 am 01:55 Cloudy with Rain 42 5.5 39 4 90 90 E 15 24 30.33 1027 7 11.26538 0.05 1.27
2:15 am 02:15 Cloudy with Drizzle 41 5.2 38 3.5 89 89 E 12 19 30.33 1027 7 11.26538 0.01 0.254
2:35 am 02:35 Cloudy with Drizzle 41 5 38 3.5 90 90 E 13 20 30.33 1027 7 11.26538 0.02 0.508
2:55 am 02:55 Cloudy 41 5 38 3.6 91 91 E 13 20 30.3 1026 7 11.26538 0.02 0.508
3:15 am 03:15 Cloudy 41 5 38 3.6 91 91 E 12 19 30.33 1027 7 11.26538 0 0
3:35 am 03:35 Cloudy 41 5 39 3.7 91 91 E 9 15 30.33 1027 10 16.0934 0 0
3:55 am 03:55 Cloudy 41 5 39 3.7 91 91 E 9 15 30.3 1026 7 11.26538 0 0
4:15 am 04:15 Cloudy with Drizzle 41 5 38 3.6 91 91 E 10 17 30.3 1026 5 8.0467 0 0
4:35 am 04:35 Cloudy with Drizzle 41 4.9 39 3.7 92 92 E 9 15 30.3 1026 4 6.43736 0.01 0.254
4:55 am 04:55 Cloudy with Light Drizzle 41 4.8 39 3.7 93 93 E 9 15 30.3 1026 5 8.0467 0.02 0.508
5:15 am 05:15 Cloudy with Light Drizzle 41 4.8 39 3.7 93 93 E 10 17 30.3 1026 5 8.0467 0 0
5:35 am 05:35 Cloudy with Light Drizzle 40 4.7 39 3.7 93 93 E 9 15 30.3 1026 5 8.0467 0 0
5:55 am 05:55 Cloudy 40 4.7 39 3.7 93 93 ENE 8 13 30.27 1025 7 11.26538 0 0
6:15 am 06:15 Cloudy with Light Drizzle 40 4.7 39 3.7 93 93 ENE 7 11 30.27 1025 7 11.26538 0 0
6:35 am 06:35 Cloudy with Light Rain 40 4.7 39 3.7 93 93 ENE 7 11 30.27 1025 7 11.26538 0 0
6:55 am 06:55 Cloudy with Light Drizzle 40 4.7 39 3.7 93 93 NE 7 11 30.27 1025 7 11.26538 0 0
7:15 am 07:15 Cloudy with Light Drizzle 40 4.6 38 3.6 93 93 NE 7 11 30.27 1025 7 11.26538 0 0
7:35 am 07:35 Cloudy with Light Drizzle 40 4.6 38 3.6 93 93 NE 6 9 30.3 1026 10 16.0934 0 0
7:55 am 07:55 Cloudy 40 4.6 38 3.5 93 93 ENE 6 9 30.3 1026 10 16.0934 0 0
8:15 am 08:15 Cloudy with Light Drizzle 40 4.7 38 3.6 93 93 NE 3 6 30.3 1026 10 16.0934 0 0
8:35 am 08:35 Cloudy with Light Drizzle 40 4.7 38 3.6 93 93 NE 3 6 30.3 1026 10 16.0934 0 0
8:55 am 08:55 Cloudy with Light Rain 40 4.7 38 3.6 93 93 ENE 5 7 30.33 1027 7 11.26538 0 0
9:15 am 09:15 Cloudy with Light Rain 41 4.8 38 3.6 92 92 NE 6 9 30.33 1027 7 11.26538 0.01 0.254
9:35 am 09:35 Cloudy with Light Drizzle 41 4.9 39 3.7 92 92 NE 5 7 30.3 1026 7 11.26538 0.01 0.254
9:55 am 09:55 Cloudy with Light Drizzle 42 5.3 39 4.1 92 92 NE 6 9 30.3 1026 10 16.0934 0.01 0.254
10:15 am 10:15 Cloudy 42 5.5 39 4.1 91 91 NE 9 15 30.3 1026 10 16.0934 0 0
10:35 am 10:35 Cloudy 43 5.9 40 4.2 89 89 ENE 13 20 30.27 1025 10 16.0934 0 0
10:55 am 10:55 Cloudy 42 5.8 39 3.9 88 88 ENE 12 19 30.27 1025 10 16.0934 0 0
11:15 am 11:15 Cloudy with Light Rain 43 6.3 39 4.1 86 86 ENE 10 17 30.27 1025 10 16.0934 0 0
11:35 am 11:35 Cloudy with Light Drizzle 43 6.3 39 4 85 85 ENE 12 19 30.3 1026 10 16.0934 0 0
11:55 am 11:55 Cloudy with Light Drizzle 44 6.7 39 4 83 83 E 14 22 30.27 1025 10 16.0934 0 0
12:15 pm 12:15 Cloudy with Light Drizzle 43 6.3 38 3.6 83 83 ENE 12 19 30.27 1025 10 16.0934 0 0
12:35 pm 12:35 Cloudy with Light Rain 44 6.7 39 4 83 83 E 9 15 30.3 1026 10 16.0934 0 0
12:55 pm 12:55 Cloudy 45 7 39 4.1 82 82 E 9 15 30.27 1025 10 16.0934 0 0
1:15 pm 13:15 Cloudy with Light Rain 46 7.5 40 4.4 81 81 E 8 13 30.27 1025 10 16.0934 0 0
1:35 pm 13:35 Cloudy 45 7.3 39 4 80 80 E 7 11 30.27 1025 10 16.0934 0 0
1:55 pm 13:55 Cloudy with Light Drizzle 45 7.2 39 4 80 80 ENE 7 11 30.27 1025 10 16.0934 0 0
2:15 pm 14:15 Cloudy 45 7.3 39 4.1 80 80 ENE 8 13 30.27 1025 10 16.0934 0 0
2:35 pm 14:35 Cloudy 45 7.2 39 3.8 79 79 E 8 13 30.27 1025 10 16.0934 0 0
2:55 pm 14:55 Cloudy 45 7.2 39 4.1 81 81 ENE 6 9 30.27 1025 10 16.0934 0 0
3:15 pm 15:15 Cloudy 45 7 39 4 81 81 NE 8 13 30.27 1025 10 16.0934 0 0
3:35 pm 15:35 Cloudy 45 7.1 39 3.9 80 80 NE 9 15 30.24 1024 10 16.0934 0 0
3:55 pm 15:55 Cloudy 46 7.5 39 4 79 79 NE 8 13 30.24 1024 10 16.0934 0 0
4:15 pm 16:15 Cloudy 46 7.5 39 4 79 79 NE 8 13 30.24 1024 10 16.0934 0 0
4:35 pm 16:35 Cloudy 46 7.6 38 3.6 76 76 NE 10 17 30.24 1024 10 16.0934 0 0
4:55 pm 16:55 Cloudy 46 7.5 38 3.6 77 77 ENE 10 17 30.24 1024 10 16.0934 0 0
5:15 pm 17:15 Cloudy 45 7.3 38 3.5 77 77 ENE 10 17 30.24 1024 10 16.0934 0 0
5:35 pm 17:35 Cloudy 45 7.4 38 3.6 77 77 ENE 10 17 30.24 1024 10 16.0934 0 0
5:55 pm 17:55 Cloudy 45 7.3 38 3.6 78 78 ENE 10 17 30.24 1024 10 16.0934 0 0
6:15 pm 18:15 Cloudy 45 7.1 39 3.8 80 80 E 13 20 30.27 1025 10 16.0934 0 0
6:35 pm 18:35 Cloudy 44 6.8 39 4.1 83 83 E 10 17 30.27 1025 10 16.0934 0 0
6:55 pm 18:55 Cloudy 44 6.7 40 4.2 84 84 E 8 13 30.27 1025 10 16.0934 0 0
7:15 pm 19:15 Cloudy 44 6.5 39 4 84 84 E 8 13 30.27 1025 10 16.0934 0 0
7:35 pm 19:35 Cloudy 44 6.5 39 4.1 85 85 ENE 6 9 30.27 1025 10 16.0934 0 0
7:55 pm 19:55 Cloudy 44 6.5 39 4 84 84 Calm 30.27 1025 10 16.0934 0 0
8:15 pm 20:15 Cloudy 43 6.3 39 3.9 85 85 E 7 11 30.27 1025 10 16.0934 0 0
8:35 pm 20:35 Cloudy 43 6.3 39 3.7 84 84 ENE 3 6 30.27 1025 10 16.0934 0 0
8:55 pm 20:55 Cloudy 43 6.2 39 4.1 87 87 ENE 5 7 30.27 1025 7 11.26538 0 0
9:15 pm 21:15 Cloudy with Drizzle 43 5.9 40 4.3 90 90 E 7 11 30.27 1025 4 6.43736 0 0
9:35 pm 21:35 Cloudy with Mist and Fog 42 5.5 39 4.1 91 91 E 6 9 30.33 1027 4 6.43736 0 0
9:55 pm 21:55 Cloudy with Mist and Fog 42 5.5 40 4.2 91 91 Calm 30.33 1027 5 8.0467 0 0
10:15 pm 22:15 Cloudy 42 5.5 40 4.2 91 91 Calm 30.33 1027 7 11.26538 0 0
10:35 pm 22:35 Cloudy 42 5.5 40 4.2 91 91 Calm 30.33 1027 7 11.26538 0 0
10:55 pm 22:55 Cloudy 42 5.5 40 4.2 91 91 NNW 3 6 30.33 1027 7 11.26538 0 0
11:15 pm 23:15 Cloudy 42 5.5 40 4.3 92 92 Calm 30.33 1027 7 11.26538 0 0
11:35 pm 23:35 Cloudy 42 5.5 40 4.3 92 92 Calm 30.33 1027 7 11.26538 0 0
11:55 pm 23:55 Cloudy 42 5.3 39 4.1 92 92 Calm 30.33 1027 7 11.26538 0 0

Powered by AerisWeather